Theta_e
345 349 351 350 350 349 351 348 348 351 351 352 348 348 342 347 347 345 343 341 339 337 335 333 336 339 340 340 341 341 340 340 340 340 339 338 336 333 331 329 331 333 334
344 353 351 349 347 352 352 352 351 350 353 352 350 348 346 345 342 338 338 338 336 337 333 329 328 327 326 326 329 335 338 339 339 339 338 338 335 333 332 331 334 332 336
349 350 352 351 348 351 351 354 352 349 351 353 351 348 342 339 341 341 341 340 335 334 333 332 333 332 329 327 325 324 325 330 331 332 335 335 336 332 328 327 328 333 335
343 350 353 349 352 353 352 349 346 347 347 350 353 348 343 344 343 343 342 338 335 335 333 333 330 329 330 328 327 324 322 321 322 324 331 331 330 331 327 327 326 331 332
349 351 352 350 355 356 354 350 348 351 353 350 349 351 346 347 346 340 340 338 337 333 334 332 331 329 331 330 328 325 324 321 317 320 329 328 332 332 330 328 328 331 333
352 354 354 354 350 356 354 347 348 350 350 349 346 349 347 345 343 340 340 339 337 332 333 332 331 330 329 328 326 326 325 322 319 319 320 326 327 332 332 330 331 330 332
350 353 349 353 355 356 355 353 347 350 351 352 343 339 352 346 343 339 336 336 336 334 334 334 331 328 327 326 325 325 324 323 319 319 318 323 327 329 332 332 332 329 329
350 354 346 348 358 358 353 352 347 347 348 343 340 334 343 348 333 339 340 338 336 336 336 333 331 329 327 325 326 324 324 323 320 319 317 318 327 329 331 332 332 331 331
353 355 355 347 356 357 353 351 346 349 347 342 336 337 337 335 336 336 339 340 337 336 336 333 331 330 328 328 325 324 323 321 319 320 319 312 323 330 330 332 333 333 330
351 353 355 348 351 355 350 348 350 346 341 333 333 335 336 336 338 333 333 335 340 336 334 332 331 329 328 328 325 325 323 322 318 317 319 314 315 325 331 332 332 330 331
351 352 354 351 359 356 353 348 351 352 346 335 335 332 332 330 327 322 322 322 323 330 337 333 331 329 328 327 326 323 322 320 318 318 318 313 322 323 328 331 331 329 330
354 353 353 350 352 355 355 351 351 351 348 344 319 329 324 321 319 322 322 322 323 329 333 331 329 328 328 326 325 323 321 319 317 318 319 312 318 327 329 331 331 331 327
354 354 356 351 355 357 356 354 351 349 351 347 328 315 322 323 321 321 323 324 323 327 332 329 328 328 327 325 323 322 321 318 317 317 319 318 327 328 329 330 331 331 328
357 358 354 350 354 356 357 356 352 350 351 350 342 323 319 323 321 321 324 325 324 325 332 330 328 327 325 324 323 322 319 317 317 317 318 319 326 328 326 327 329 331 332
356 356 353 353 350 354 359 358 356 353 351 351 348 336 313 317 322 323 326 327 327 327 329 330 328 327 324 322 323 323 319 318 317 318 318 317 327 327 328 329 334 335 334
350 350 351 355 351 353 357 358 359 355 351 350 350 342 313 309 317 323 329 324 321 324 328 328 327 325 324 323 324 321 321 319 318 318 318 316 327 327 329 326 326 338 336
347 349 349 349 351 344 352 353 356 356 354 349 350 344 317 310 321 324 325 325 325 325 326 327 324 324 323 322 323 321 321 319 318 318 318 316 326 326 328 326 326 337 337
342 349 347 340 332 338 348 351 352 359 355 351 349 346 320 312 315 317 317 322 326 327 327 323 322 322 321 322 322 321 320 319 318 318 318 317 323 326 327 325 325 327 336
334 338 337 335 334 334 340 347 350 360 355 350 348 348 328 312 313 320 316 317 325 326 324 323 322 322 321 321 321 320 318 317 317 317 317 317 318 326 328 327 325 326 328
346 345 342 339 338 340 342 344 350 358 357 351 349 348 328 311 312 318 313 315 322 325 324 323 322 321 321 322 321 319 318 316 317 316 317 317 316 325 326 327 326 326 326
349 349 349 347 343 342 342 343 352 357 357 354 350 347 334 311 311 312 314 316 318 325 324 321 320 320 319 319 320 319 318 316 316 316 316 317 317 317 326 326 327 327 326
350 351 351 350 348 346 342 350 352 353 356 356 351 348 332 311 310 312 315 318 318 320 319 320 319 318 319 318 320 319 318 317 316 315 316 316 317 316 321 326 326 326 326
357 356 354 353 351 351 345 350 351 354 357 356 351 348 330 316 311 313 319 322 320 320 320 318 318 318 318 318 318 319 317 317 315 314 315 315 316 317 318 321 326 326 327
359 359 359 357 354 352 348 345 350 356 356 355 351 348 336 328 319 313 320 324 323 321 321 320 318 317 318 318 318 317 317 317 315 314 315 316 315 316 319 320 321 326 326
361 361 360 359 358 352 351 348 350 355 357 357 352 347 335 328 316 312 319 325 323 323 322 321 318 317 317 317 317 317 316 316 315 314 314 314 315 315 317 321 322 324 326
360 360 360 360 358 355 354 350 352 356 358 356 351 348 341 329 313 313 319 325 325 324 324 321 319 317 317 317 317 316 316 316 315 315 314 315 314 316 314 319 322 324 324
Wind_Speed
9 7 6 8 5 10 7 6 11 12 7 4 4 7 11 10 10 10 10 11 10 10 13 14 8 6 7 8 8 9 11 10 10 13 16 17 22 22 30 30 28 29 30
4 5 7 7 6 5 8 12 12 12 11 3 2 3 5 6 5 7 6 4 7 8 12 10 10 10 10 10 7 3 4 5 8 13 15 15 21 25 29 33 33 34 34
10 6 3 5 6 2 4 6 9 8 11 7 11 2 6 2 2 2 1 6 10 6 9 7 8 8 9 10 9 7 5 4 7 10 13 18 21 21 24 27 35 40 34
8 5 8 6 13 0 6 11 9 6 7 9 8 4 5 4 4 1 4 6 6 5 6 6 5 8 9 10 14 10 8 9 9 9 11 14 16 18 22 23 26 40 38
7 7 11 9 11 7 9 14 4 7 8 6 4 7 3 5 7 2 6 4 5 8 4 5 5 6 7 9 12 17 20 13 12 13 10 12 16 17 18 20 22 28 40
6 11 10 12 10 8 9 13 9 9 7 11 12 3 3 3 4 3 6 6 6 7 2 6 4 6 8 7 13 15 20 18 14 12 14 12 15 16 18 20 21 20 35
3 7 6 6 8 8 13 13 13 7 11 9 11 8 5 6 2 7 6 9 9 8 5 6 8 8 13 12 13 15 19 24 19 13 13 11 13 16 18 21 21 21 27
4 5 7 8 8 10 14 15 13 8 14 12 10 10 3 7 7 7 9 9 8 5 9 5 4 6 10 13 15 17 22 27 21 15 10 15 9 13 16 18 19 21 16
3 4 9 9 7 10 16 14 12 9 8 8 12 9 3 3 7 5 8 9 8 8 9 5 3 4 5 9 14 18 25 24 19 15 10 9 12 9 12 14 17 20 21
5 1 7 11 7 16 14 13 10 10 12 9 6 7 6 4 3 3 5 7 10 10 11 6 8 6 4 7 13 14 20 24 18 16 11 6 12 9 9 13 16 19 22
4 4 7 8 9 14 13 15 9 11 15 12 5 5 4 4 5 7 3 11 9 9 11 10 12 8 5 8 10 17 22 21 17 15 10 8 6 9 9 10 16 19 22
5 6 7 4 6 13 12 15 11 12 13 14 8 7 10 10 9 9 10 11 13 16 4 8 8 3 8 3 10 15 21 17 17 16 11 8 6 8 9 10 15 25 30
8 12 5 5 6 10 14 12 12 13 14 13 12 7 8 9 10 8 9 13 14 16 13 7 2 3 2 13 13 14 15 12 15 17 12 8 7 7 8 11 15 22 28
2 8 3 4 1 7 10 15 13 13 14 14 13 11 7 8 9 11 10 11 10 11 4 4 5 7 11 16 14 11 10 13 15 16 13 7 8 10 11 17 25 25 28
4 4 2 2 2 4 9 14 15 12 14 15 14 12 7 6 6 7 8 9 9 7 9 2 3 4 11 14 10 8 7 11 14 16 14 8 8 13 12 13 9 19 26
9 9 8 7 4 5 7 13 13 12 12 13 13 14 10 6 4 5 7 9 9 5 8 3 4 5 8 9 8 5 5 11 14 14 14 9 12 14 14 15 28 5 33
18 16 15 14 15 9 7 11 13 11 11 13 14 14 10 8 6 6 7 8 11 13 7 6 4 5 7 7 5 5 6 10 13 13 13 10 12 16 18 17 20 19 34
18 20 18 13 11 10 8 11 13 12 9 12 12 12 10 8 7 7 6 9 3 0 1 5 6 7 10 5 2 5 7 11 9 13 12 11 12 14 20 20 19 28 34
19 21 21 15 10 10 9 9 11 11 13 9 10 11 10 7 7 8 10 8 4 6 6 5 6 7 10 8 4 4 6 7 9 11 11 11 10 14 19 22 26 29 33
14 14 15 14 12 10 9 9 11 11 12 9 8 10 7 6 6 7 9 10 6 11 8 7 7 7 10 8 5 7 9 7 10 11 12 11 11 13 14 22 26 30 31
17 16 15 14 15 14 13 10 11 13 14 10 8 6 6 4 5 6 8 13 10 6 4 6 5 7 9 7 4 6 9 8 12 12 11 11 11 10 15 14 24 25 29
19 17 16 14 13 15 14 9 13 17 18 13 8 4 4 1 3 6 10 16 15 13 12 9 8 8 6 6 7 6 6 4 9 12 10 15 12 11 13 14 16 20 22
18 18 16 15 13 12 13 14 16 14 15 12 7 4 1 3 3 5 10 15 16 19 19 16 12 11 11 8 6 8 7 4 11 11 10 15 12 15 15 14 16 17 20
20 19 17 16 13 11 13 16 15 14 15 11 7 6 3 2 1 3 8 12 14 13 16 19 18 12 10 9 7 8 8 7 11 11 11 17 11 17 18 16 16 17 17
22 21 19 18 16 13 14 17 19 17 15 12 8 8 6 4 4 1 5 8 11 10 13 16 18 15 13 11 11 9 10 9 12 10 10 13 14 14 18 20 19 15 18
21 20 21 21 18 15 13 17 20 20 18 14 10 10 9 5 7 7 4 6 7 9 10 15 16 15 14 11 10 9 10 8 10 9 7 15 16 16 14 17 17 19 18
Wind_Direction
39 40 21 23 10 29 358 4 23 351 312 7 338 332 360 360 2 1 11 19 347 346 343 340 341 314 304 301 289 277 271 265 248 239 238 246 231 222 221 232 223 226 216
44 30 29 42 349 341 328 24 21 15 29 0 49 97 339 323 337 5 27 351 0 5 6 23 39 39 33 26 25 348 297 282 256 243 253 237 214 231 236 228 226 226 220
34 14 32 26 2 268 36 24 346 353 19 25 349 21 86 85 74 107 2 345 8 24 17 26 11 13 14 11 5 354 333 297 267 253 249 247 235 234 237 240 235 220 216
52 67 84 28 2 226 13 352 4 31 35 9 340 192 112 116 146 142 347 23 18 21 4 2 6 0 2 17 6 358 330 292 271 267 262 250 240 249 238 253 220 222 217
28 54 26 38 14 13 2 350 31 13 360 22 327 317 138 161 217 355 345 341 341 349 353 8 341 350 356 20 6 358 357 338 285 263 262 254 250 245 242 238 232 221 220
27 9 28 21 6 348 346 10 23 31 42 17 1 9 290 157 269 281 276 271 298 334 293 310 291 325 349 26 352 351 350 348 327 281 253 253 250 250 240 238 232 216 216
87 342 347 356 19 357 360 12 25 40 33 27 24 17 207 171 211 237 255 280 287 327 282 323 356 8 14 20 3 347 347 348 336 311 260 248 254 255 244 233 224 222 217
115 325 360 16 32 31 10 7 24 65 53 40 26 49 114 157 339 233 275 279 279 290 253 285 335 352 2 7 352 344 339 338 335 321 278 243 254 259 250 235 225 218 219
94 271 335 13 19 22 7 21 19 29 29 44 36 49 57 10 12 21 311 303 264 264 253 268 261 295 325 346 348 339 338 340 337 335 309 264 258 277 253 238 222 213 215
312 186 327 4 17 10 13 20 24 16 25 20 23 55 52 36 359 332 36 345 286 269 269 279 219 237 271 344 337 343 335 337 332 337 327 301 247 277 258 243 227 217 210
142 173 295 5 10 355 15 14 18 20 26 19 12 357 330 337 355 349 356 320 346 358 254 258 215 220 325 316 344 347 348 339 337 345 332 306 282 277 281 241 227 219 212
205 192 272 13 2 357 8 6 13 15 16 20 16 339 5 9 2 9 352 349 7 16 249 209 219 206 311 299 346 0 341 333 346 357 348 337 286 278 277 262 236 218 217
231 219 249 353 19 354 346 359 1 11 13 18 31 18 9 6 4 348 358 0 19 44 135 151 106 336 342 354 350 360 344 341 3 8 7 359 339 321 310 292 274 238 240
113 193 278 335 317 334 332 345 355 8 7 12 23 14 355 5 2 14 3 2 13 36 108 159 68 360 350 6 359 11 8 353 9 9 17 19 349 349 330 306 287 249 265
187 214 237 236 295 289 319 335 349 347 356 2 7 8 356 349 351 10 3 350 2 35 64 3 278 346 352 356 359 347 26 6 15 16 21 23 17 6 339 352 336 266 197
212 232 245 246 264 288 323 314 333 348 351 356 4 5 17 12 3 346 10 360 21 72 68 16 64 21 12 4 2 28 38 6 9 14 25 36 31 28 19 358 350 235 179
221 232 248 259 266 267 263 301 324 338 348 350 360 1 10 11 31 19 7 22 71 67 29 72 62 39 27 12 350 31 24 3 13 26 32 46 41 42 45 36 16 98 160
223 230 247 261 262 256 260 288 304 324 331 344 353 357 7 18 20 38 32 38 77 29 15 87 75 43 47 43 45 13 8 357 17 37 40 50 61 61 63 70 56 50 141
233 235 245 255 260 262 265 278 286 304 324 338 342 351 7 25 19 26 25 30 13 60 100 78 57 66 66 56 67 37 19 20 36 46 55 60 82 78 72 82 77 76 75
241 241 247 253 254 260 267 270 279 292 308 328 334 346 7 19 19 26 30 42 82 102 88 68 68 108 87 85 55 38 35 41 57 52 65 64 88 86 88 91 94 93 91
248 251 251 251 251 256 264 269 270 285 294 307 327 338 354 7 14 22 38 48 71 141 52 17 51 111 118 111 64 44 45 55 76 62 62 73 77 103 100 96 102 100 98
250 249 250 255 252 248 254 238 269 279 281 296 313 312 332 67 33 33 59 57 69 66 56 63 72 83 117 105 102 70 41 54 79 58 62 80 75 101 108 112 106 108 108
254 252 250 252 258 257 249 232 254 262 271 290 294 282 266 123 40 36 61 54 57 52 55 56 65 70 103 106 90 79 49 64 104 95 92 76 84 101 109 122 116 119 118
254 253 253 253 257 258 244 240 248 251 267 279 272 262 219 197 334 18 59 57 51 55 52 48 53 64 90 95 94 88 71 109 111 107 103 90 86 99 118 108 123 132 135
251 248 251 253 255 254 244 236 244 248 257 266 258 250 235 202 195 180 76 77 67 61 53 49 43 55 95 106 89 79 82 135 128 117 107 103 104 107 123 123 127 136 144
249 245 244 243 246 246 244 234 244 249 253 258 249 230 236 203 179 176 159 114 94 73 57 52 42 56 85 94 87 87 82 92 140 123 122 129 127 117 116 139 135 134 150